When you browse on this site, cookies collect data to enhance your experience and personalize the content and advertising you see.
Visit our Privacy Policy to learn more. By continuing to use the site, you agree to this use of cookies and data.
  • Em Portugal
  • Lista de países
  • Para 7 dias
  • Temperatura da água
  • Mapas de satélite
  • Mapa do tempo
  • Widgets de tempo
  • user-avatar
    Iniciar Sessão

    Previsão horária em Kalyal

    Hoje, 27 Junho, Quinta-feira

    Tempo Temperatura Precipitação Vento Pressão Humidade
    00:00 +13°C° 0 mm 1 m/s 602 mmHg 73%
    01:00 +13°C° 0 mm 1 m/s 602 mmHg 74%
    02:00 +13°C° 0 mm 1 m/s 602 mmHg 74%
    03:00 +13°C° 0 mm 1 m/s 601 mmHg 74%
    04:00 +14°C° 0 mm 1 m/s 602 mmHg 72%
    05:00 +15°C° 0 mm 1 m/s 602 mmHg 70%
    06:00 +18°C° 0 mm 1 m/s 603 mmHg 68%
    07:00 +18°C° 0 mm 1 m/s 603 mmHg 64%
    08:00 +18°C° 0 mm 2 m/s 604 mmHg 60%
    09:00 +19°C° 0 mm 2 m/s 604 mmHg 57%
    10:00 +19°C° 0.3 mm 2 m/s 604 mmHg 58%
    11:00 +20°C° 0.3 mm 2 m/s 603 mmHg 60%
    12:00 +20°C° 0.3 mm 3 m/s 603 mmHg 62%
    13:00 +20°C° 0.7 mm 2 m/s 603 mmHg 62%
    14:00 +20°C° 0.7 mm 2 m/s 603 mmHg 62%
    15:00 +20°C° 0.7 mm 2 m/s 602 mmHg 62%
    16:00 +20°C° 0.3 mm 1 m/s 602 mmHg 64%
    17:00 +20°C° 0.3 mm 1 m/s 601 mmHg 66%
    18:00 +20°C° 0.3 mm 1 m/s 601 mmHg 68%
    19:00 +18°C° 0.1 mm 1 m/s 600 mmHg 72%
    20:00 +15°C° 0.1 mm 1 m/s 600 mmHg 77%
    21:00 +13°C° 0.1 mm 1 m/s 599 mmHg 81%
    22:00 +13°C° 0 mm 1 m/s 599 mmHg 82%
    23:00 +13°C° 0 mm 1 m/s 598 mmHg 83%

    Amanhã, 28 Junho, Sexta-feira

    Tempo Temperatura Precipitação Vento Pressão Humidade
    00:00 +13°C° 0 mm 1 m/s 598 mmHg 84%
    01:00 +12°C° 0 mm 1 m/s 598 mmHg 83%
    02:00 +12°C° 0 mm 1 m/s 597 mmHg 83%
    03:00 +11°C° 0 mm 1 m/s 597 mmHg 82%
    04:00 +13°C° 0 mm 1 m/s 597 mmHg 79%
    05:00 +14°C° 0 mm 1 m/s 598 mmHg 77%
    06:00 +15°C° 0 mm 1 m/s 599 mmHg 74%
    07:00 +18°C° 0 mm 1 m/s 599 mmHg 70%
    08:00 +19°C° 0 mm 1 m/s 599 mmHg 66%
    09:00 +19°C° 0 mm 2 m/s 599 mmHg 62%
    10:00 +20°C° 0.7 mm 2 m/s 599 mmHg 61%
    11:00 +20°C° 0.7 mm 2 m/s 599 mmHg 60%
    12:00 +21°C° 0.7 mm 2 m/s 599 mmHg 59%
    13:00 +21°C° 0.9 mm 2 m/s 599 mmHg 58%
    14:00 +21°C° 0.9 mm 2 m/s 598 mmHg 57%
    15:00 +21°C° 0.9 mm 2 m/s 598 mmHg 56%
    16:00 +21°C° 0.7 mm 2 m/s 598 mmHg 59%
    17:00 +20°C° 0.7 mm 2 m/s 597 mmHg 62%
    18:00 +20°C° 0.7 mm 1 m/s 597 mmHg 66%
    19:00 +18°C° 0 mm 1 m/s 596 mmHg 69%
    20:00 +16°C° 0 mm 1 m/s 596 mmHg 73%
    21:00 +14°C° 0 mm 1 m/s 595 mmHg 77%
    22:00 +14°C° 0 mm 1 m/s 595 mmHg 77%
    23:00 +14°C° 0 mm 1 m/s 595 mmHg 77%

    Depois de amanhã, 29 Junho, Sábado

    Tempo Temperatura Precipitação Vento Pressão Humidade
    00:00 +14°C° 0 mm 2 m/s 595 mmHg 78%
    01:00 +14°C° 0.1 mm 1 m/s 595 mmHg 78%
    02:00 +15°C° 0.1 mm 1 m/s 595 mmHg 78%
    03:00 +15°C° 0.1 mm 1 m/s 595 mmHg 78%
    04:00 +15°C° 0.2 mm 1 m/s 596 mmHg 78%
    05:00 +16°C° 0.2 mm 1 m/s 596 mmHg 77%
    06:00 +16°C° 0.2 mm 1 m/s 596 mmHg 76%
    07:00 +18°C° 0.4 mm 1 m/s 597 mmHg 73%
    08:00 +18°C° 0.4 mm 2 m/s 597 mmHg 69%
    09:00 +19°C° 0.4 mm 2 m/s 597 mmHg 65%
    10:00 +20°C° 1.4 mm 3 m/s 597 mmHg 67%
    11:00 +20°C° 1.4 mm 3 m/s 597 mmHg 68%
    12:00 +20°C° 1.4 mm 3 m/s 597 mmHg 69%
    13:00 +20°C° 1.8 mm 3 m/s 597 mmHg 71%
    14:00 +19°C° 1.8 mm 2 m/s 597 mmHg 72%
    15:00 +19°C° 1.8 mm 2 m/s 597 mmHg 73%
    16:00 +19°C° 1.3 mm 2 m/s 596 mmHg 73%
    17:00 +20°C° 1.3 mm 1 m/s 596 mmHg 72%
    18:00 +19°C° 1.3 mm 1 m/s 596 mmHg 72%
    19:00 +18°C° 1.3 mm 1 m/s 596 mmHg 79%
    20:00 +16°C° 1.3 mm 1 m/s 596 mmHg 85%
    21:00 +14°C° 1.3 mm 1 m/s 596 mmHg 92%
    22:00 +14°C° 4 mm 1 m/s 596 mmHg 93%
    23:00 +14°C° 4 mm 1 m/s 596 mmHg 93%

    30 Junho, Domingo

    Tempo Temperatura Precipitação Vento Pressão Humidade
    00:00 +13°C° 4 mm 1 m/s 596 mmHg 94%
    01:00 +13°C° 0.2 mm 1 m/s 596 mmHg 94%
    02:00 +13°C° 0.2 mm 1 m/s 596 mmHg 93%
    03:00 +12°C° 0.2 mm 1 m/s 596 mmHg 93%
    04:00 +13°C° 0.4 mm 1 m/s 596 mmHg 92%
    05:00 +13°C° 0.4 mm 1 m/s 596 mmHg 91%
    06:00 +13°C° 0.4 mm 1 m/s 597 mmHg 90%
    07:00 +13°C° 0.8 mm 1 m/s 597 mmHg 88%
    08:00 +14°C° 0.8 mm 2 m/s 597 mmHg 86%
    09:00 +14°C° 0.8 mm 2 m/s 598 mmHg 84%
    10:00 +14°C° 0.7 mm 2 m/s 598 mmHg 83%
    11:00 +15°C° 0.7 mm 2 m/s 598 mmHg 82%
    12:00 +15°C° 0.7 mm 2 m/s 598 mmHg 81%
    13:00 +15°C° 0.8 mm 2 m/s 598 mmHg 83%
    14:00 +15°C° 0.8 mm 2 m/s 597 mmHg 85%
    15:00 +14°C° 0.8 mm 2 m/s 597 mmHg 87%
    16:00 +14°C° 1.4 mm 2 m/s 597 mmHg 90%
    17:00 +13°C° 1.4 mm 2 m/s 597 mmHg 93%
    18:00 +13°C° 1.4 mm 2 m/s 597 mmHg 96%
    19:00 +12°C° 4.2 mm 3 m/s 597 mmHg 97%
    20:00 +11°C° 4.2 mm 3 m/s 597 mmHg 97%
    21:00 +11°C° 4.2 mm 4 m/s 598 mmHg 98%
    22:00 +11°C° 3 mm 4 m/s 598 mmHg 98%
    23:00 +10°C° 3 mm 3 m/s 598 mmHg 98%

    1 Julho, Segunda-feira

    Tempo Temperatura Precipitação Vento Pressão Humidade
    00:00 +10°C° 3 mm 3 m/s 598 mmHg 99%
    01:00 +10°C° 2.8 mm 3 m/s 598 mmHg 99%
    02:00 +9°C° 2.8 mm 3 m/s 597 mmHg 98%
    03:00 +9°C° 2.8 mm 3 m/s 597 mmHg 98%
    04:00 +8°C° 0.7 mm 2 m/s 597 mmHg 97%
    05:00 +8°C° 0.7 mm 2 m/s 597 mmHg 96%
    06:00 +8°C° 0.7 mm 2 m/s 597 mmHg 95%
    07:00 +8°C° 1 mm 2 m/s 597 mmHg 94%
    08:00 +9°C° 1 mm 1 m/s 597 mmHg 93%
    09:00 +9°C° 1 mm 1 m/s 597 mmHg 93%
    10:00 +8°C° 1.1 mm 2 m/s 597 mmHg 93%
    11:00 +8°C° 1.1 mm 2 m/s 597 mmHg 92%
    12:00 +8°C° 1.1 mm 2 m/s 598 mmHg 92%
    13:00 +8°C° 0.3 mm 2 m/s 598 mmHg 88%
    14:00 +9°C° 0.3 mm 2 m/s 598 mmHg 84%
    15:00 +9°C° 0.3 mm 2 m/s 598 mmHg 80%
    16:00 +9°C° 0.2 mm 2 m/s 598 mmHg 82%
    17:00 +9°C° 0.2 mm 2 m/s 598 mmHg 84%
    18:00 +8°C° 0.2 mm 2 m/s 598 mmHg 87%
    19:00 +8°C° 0.3 mm 2 m/s 598 mmHg 90%
    20:00 +7°C° 0.3 mm 2 m/s 598 mmHg 92%
    21:00 +7°C° 0.3 mm 1 m/s 598 mmHg 95%
    22:00 +7°C° 0.2 mm 1 m/s 598 mmHg 94%
    23:00 +6°C° 0.2 mm 1 m/s 598 mmHg 92%

    2 Julho, Terça-feira

    Tempo Temperatura Precipitação Vento Pressão Humidade
    00:00 +6°C° 0.2 mm 1 m/s 598 mmHg 91%
    01:00 +5°C° 0.1 mm 1 m/s 598 mmHg 90%
    02:00 +5°C° 0.1 mm 1 m/s 598 mmHg 90%
    03:00 +5°C° 0.1 mm 1 m/s 598 mmHg 89%
    04:00 +5°C° 0 mm 1 m/s 598 mmHg 86%
    05:00 +6°C° 0 mm 1 m/s 599 mmHg 82%
    06:00 +6°C° 0 mm 0 m/s 599 mmHg 78%
    07:00 +8°C° 0 mm 1 m/s 600 mmHg 76%
    08:00 +8°C° 0 mm 2 m/s 600 mmHg 74%
    09:00 +9°C° 0 mm 2 m/s 601 mmHg 72%
    10:00 +10°C° 0 mm 2 m/s 601 mmHg 69%
    11:00 +12°C° 0 mm 2 m/s 601 mmHg 66%
    12:00 +13°C° 0 mm 2 m/s 602 mmHg 63%
    13:00 +14°C° 0 mm 2 m/s 602 mmHg 62%
    14:00 +14°C° 0 mm 2 m/s 602 mmHg 60%
    15:00 +14°C° 0 mm 3 m/s 602 mmHg 59%
    16:00 +14°C° 0 mm 2 m/s 602 mmHg 64%
    17:00 +14°C° 0 mm 1 m/s 601 mmHg 69%
    18:00 +13°C° 0 mm 1 m/s 601 mmHg 74%
    19:00 +12°C° 0 mm 1 m/s 601 mmHg 76%
    20:00 +10°C° 0 mm 1 m/s 600 mmHg 77%
    21:00 +8°C° 0 mm 1 m/s 599 mmHg 78%
    22:00 +8°C° 0 mm 1 m/s 599 mmHg 77%
    23:00 +8°C° 0 mm 1 m/s 599 mmHg 75%
    Mostrar mais